Location: ??
(34.9170°N, 135.5016°E)
Time: 00:40:45
(UTC+00:00)

RS-15 - Pass Details

Date: 23 April 2021
Orbit: 1888 x 2157 km, 64.8° (Epoch: 12 May)

Event Time Altitude Azimuth Distance (km) Brightness Sun altitude
Rises 13:12:30 0° 302° (WNW) 5,395 11.1 -36.4°
Reaches altitude 10° 13:19:07 10° 329° (NNW) 4,462 10.6 -37.1°
Maximum altitude 13:23:44 13° 354° (N) 4,278 10.4 -37.5°
Drops below altitude 10° 13:28:26 10° 18° (NNE) 4,553 10.4 -38.0°
Sets 13:35:25 0° 46° (NE) 5,614 10.6 -38.6°
